This demonstration page uses our WeatherBlox Daily Observations layout. Learn more.

Left ArrowRight Arrow

44.89941, -97.11507

Hourly Observations for February 22, 2021

Temp ( °F °C ) Dew Point ( °F °C ) Humidity (%) Winds ( mph kmh ) Pressure ( in mb ) Visibility ( mi km ) Precip ( " mm )
12:53 am 00:53 Clear 15 -9.4 13 -10.6 91 91 SSE 3 6 29.77 1008 7 11 0.00 0.00
1:53 am 01:53 Clear 20 -6.7 17 -8.3 89 89 SSW 8 13 29.75 1007 10 16 0.00 0.00
2:53 am 02:53 Clear 25 -3.9 20 -6.7 81 81 SW 15 24 29.69 1006 10 16 0.00 0.00
3:53 am 03:53 Mostly Clear 28 -2.2 22 -5.6 78 78 WSW 17 28 29.67 1005 10 16 0.00 0.00
4:53 am 04:53 Clear 29 -1.7 22 -5.6 75 75 SW 17 28 29.64 1004 10 16 0.00 0.00
5:53 am 05:53 Clear 29 -1.7 22 -5.6 75 75 WSW 15 24 29.64 1004 10 16 0.00 0.00
6:53 am 06:53 Clear 28 -2.2 22 -5.6 78 78 WSW 15 24 29.63 1003 10 16 0.00 0.00
7:53 am 07:53 Sunny 31 -0.6 23 -5 72 72 WSW 18 30 29.63 1004 10 16 0.00 0.00
8:53 am 08:53 Sunny 33 0.6 24 -4.4 70 70 WSW 16 26 29.64 1004 10 16 0.00 0.00
9:53 am 09:53 Sunny 34 1.1 26 -3.3 73 73 WSW 14 22 29.62 1003 10 16 0.00 0.00
10:53 am 10:53 Sunny 37 2.8 27 -2.8 67 67 WSW 17 28 29.61 1003 10 16 0.00 0.00
11:53 am 11:53 Sunny 38 3.3 28 -2.2 68 68 WSW 17 28 29.61 1003 10 16 0.00 0.00
12:53 pm 12:53 Sunny 39 3.9 30 -1.1 70 70 W 18 30 29.58 1002 10 16 0.00 0.00
1:53 pm 13:53 Sunny 43 6.1 31 -0.6 63 63 W 17 28 29.55 1001 10 16 0.00 0.00
2:53 pm 14:53 Sunny 45 7.2 34 1.1 66 66 W 15 24 29.54 1001 10 16 0.00 0.00
3:53 pm 15:53 Sunny 46 7.8 34 1.1 63 63 WNW 15 24 29.55 1001 10 16 0.00 0.00
4:53 pm 16:53 Sunny 44 6.7 34 1.1 68 68 W 10 17 29.57 1002 10 16 0.00 0.00
5:53 pm 17:53 Cloudy 43 6.1 34 1.1 71 71 W 10 17 29.60 1002 10 16 0.00 0.00
6:53 pm 18:53 Mostly Clear 42 5.6 33 0.6 71 71 WNW 15 24 29.64 1004 10 16 0.00 0.00
7:53 pm 19:53 Clear 40 4.4 32 0 73 73 NW 13 20 29.67 1005 10 16 0.00 0.00
8:53 pm 20:53 Mostly Clear 39 3.9 30 -1.1 70 70 NW 15 24 29.70 1006 10 16 0.00 0.00
9:53 pm 21:53 Clear 38 3.3 28 -2.2 68 68 NW 16 26 29.73 1007 10 16 0.00 0.00
10:53 pm 22:53 Clear 36 2.2 27 -2.8 70 70 NW 16 26 29.75 1008 10 16 0.00 0.00
11:53 pm 23:53 Clear 36 2.2 26 -3.3 67 67 WNW 13 20 29.75 1007 10 16 0.00 0.00

Powered by AerisWeather